Home   Weather   Gbarnga   Past weeks

Flag for Liberia Past Weather in Gbarnga, Liberia — Yesterday and Last 2 Weeks

Now
84 °F

Broken clouds.


Feels Like: 92 °F
Forecast: N/A
Wind: 5 mph from West

Location: Roberts Field

Current Time: Dec 10, 2016 at 6:31:10 pm

Latest Report: Dec 10, 2016 at 6:00 pm


Visibility: N/A

Pressure: 29.80 "Hg

Humidity: 74%

Dew Point: 75 °F

Location of GbarngaLocation

Past Weather in Gbarnga — Graph

°F

Gbarnga Temperature Yesterday

Maximum temperature yesterday: 88 °F (at 12:00 pm)
Minimum temperature yesterday: 72 °F (at 7:00 am)
Average temperature yesterday: 80 °F

High & Low Weather Summary for the Past Weeks

 TemperatureHumidityPressure
High91 °F (Dec 6, 2:00 pm)94% (Nov 25, 5:30 pm)29.95 "Hg (Nov 25, 5:30 pm)
Low72 °F (Dec 9, 7:00 am)62% (Dec 10, 12:00 pm)29.74 "Hg (Nov 26, 3:30 pm)
Average81 °F86%29.86 "Hg
* Reported Nov 25 5:00 pm — Dec 10 5:00 pm, Gbarnga, Weather by CustomWeather, © 2016

Note: Actual official high and low records may vary slightly from our data, if they occured in-between our weather recording intervals... More about our weather records

Advertising

Gbarnga Weather History for the Previous 24 Hours

Scroll right to see more
 ConditionsComfort  
Time TempWeatherWind HumidityBarometerVisibility
5:00 pm
Sat, Dec 10
86 °FBroken clouds.3 mph75%29.80 "HgN/A
4:30 pm86 °FBroken clouds.7 mph75%29.77 "HgN/A
4:00 pm86 °FPartly sunny.5 mph75%29.77 "HgN/A
3:30 pm86 °FPartly sunny.7 mph75%29.77 "HgN/A
3:00 pm86 °FPartly sunny.5 mph75%29.80 "HgN/A
2:30 pm88 °FPartly sunny.5 mph66%29.80 "HgN/A
2:00 pm90 °FPartly sunny.No wind63%29.80 "HgN/A
1:30 pm90 °FPartly sunny.5 mph63%29.83 "HgN/A
1:00 pm90 °FPartly sunny.3 mph63%29.83 "HgN/A
12:30 pm88 °FPartly sunny.3 mph75%29.86 "HgN/A
12:00 pm88 °FPartly sunny.No wind62%29.86 "HgN/A
11:30 am88 °FPartly sunny.No wind66%29.89 "HgN/A
11:00 am86 °FScattered clouds.No wind70%29.89 "HgN/A
10:30 am84 °FScattered clouds.5 mph74%29.89 "HgN/A
10:00 am82 °FPassing clouds.5 mph79%29.89 "HgN/A
9:30 am81 °FPassing clouds.3 mph89%29.89 "HgN/A
9:00 am79 °FPassing clouds.No wind94%29.89 "HgN/A
8:30 am77 °FScattered clouds.No wind94%29.89 "HgN/A
8:00 am77 °FScattered clouds.5 mph94%29.86 "HgN/A
7:30 am75 °FPassing clouds.No wind94%29.86 "HgN/A
7:00 am75 °FPassing clouds.No wind94%29.86 "HgN/A
6:30 am75 °FPassing clouds.No wind94%29.86 "HgN/A
1:00 am75 °FPassing clouds.No wind94%29.86 "HgN/A
12:30 am75 °FPassing clouds.No wind94%29.86 "HgN/A
12:00 am75 °FPassing clouds.No wind94%29.89 "HgN/A
11:30 pm
Fri, Dec 9
75 °FPassing clouds.No wind94%29.89 "HgN/A
11:00 pm75 °FPassing clouds.No wind94%29.86 "HgN/A
10:30 pm77 °FPassing clouds.3 mph94%29.86 "HgN/A
10:00 pm77 °FPassing clouds.No wind94%29.86 "HgN/A
9:30 pm79 °FPassing clouds.7 mph94%29.89 "HgN/A
9:00 pm79 °FPassing clouds.5 mph94%29.89 "HgN/A
8:30 pm79 °FPassing clouds.5 mph94%29.89 "HgN/A
8:00 pm81 °FPassing clouds.3 mph89%29.89 "HgN/A
7:30 pm81 °FPassing clouds.No wind89%29.86 "HgN/A
7:00 pm81 °FPassing clouds.No wind94%29.86 "HgN/A
6:30 pm81 °FScattered clouds.No wind89%29.83 "HgN/A
6:00 pm82 °FScattered clouds.No wind84%29.83 "HgN/A
Weather by CustomWeather, © 2016

See weather overviewHow to use our weather pages